Regional Weather Roundup
Issued by NWS

Home | Current Version | Previous Version | Graphics & Text | Print | Product List | Glossary On
Versions: 1 2 3 4 5 6 7 8 9 10 11 12 13 14 15 16 17 18 19 20 21 22 23 24 25 26 27 28 29 30 31 32 33 34 35 36 37 38 39 40 41 42 43 44 45 46 47 48 49 50
562
ASUS45 KCYS 160710
RWRWY

WYOMING REGIONAL WEATHER ROUNDUP
NATIONAL WEATHER SERVICE CHEYENNE WY
1200 AM MST SAT DEC 16 2017

NOTE:  "FAIR" INDICATES FEW OR NO CLOUDS BELOW 12,000 FEET
WITH NO SIGNIFICANT WEATHER AND/OR OBSTRUCTIONS TO VISIBILITY.

WYZ001-160800-
YELLOWSTONE NATIONAL PARK

CITY           SKY/WX    TMP DP  RH WIND       PRES   REMARKS
LK YELLOWSTONE   N/A     18  16  92 CALM      29.90F
W YELLOWSTONE  NOT AVBL

$$
WYZ002>013-054>058-071-098>099-160800-
NORTHERN WYOMING

CITY           SKY/WX    TMP DP  RH WIND       PRES   REMARKS
JACKSON        CLOUDY    23  18  81 NE8       29.90F WCI  14
CODY           FAIR      37  15  40 SW3       29.82R
GREYBULL       FAIR      27  18  69 SW6       29.78S WCI  20
WORLAND        FAIR      26  22  84 S7        29.78S WCI  18
SHERIDAN       FAIR      41  20  43 NW14      29.80R
BUFFALO        MOCLDY    41  18  39 N8        29.79R
GILLETTE       FAIR      30  20  66 VRB3      29.76R
HULETT         FAIR      36  21  55 W5        29.76R WCI  32
NEWCASTLE      FAIR      30  21  69 N10       29.74S WCI  21

$$
WYZ014>020-022>026-101>103-160800-
CENTRAL WYOMING

CITY           SKY/WX    TMP DP  RH WIND       PRES   REMARKS
BIG PINEY      FAIR      16   8  71 CALM      29.91F
PINEDALE       FAIR      19  14  79 W6        29.90F WCI  11
DUBOIS         FAIR      30   9  40 NW15      29.82S WCI  19
LANDER         FAIR      29  18  63 CALM      29.76F
RIVERTON       FAIR      27  18  69 SE5       29.77F WCI  22
CASPER         FAIR      39  13  34 SW22      29.78F WCI  29
DOUGLAS        FAIR      39  13  34 NW3       29.73S

$$
WYZ021-027>030-104>119-160800-
SOUTHERN WYOMING

CITY           SKY/WX    TMP DP  RH WIND       PRES   REMARKS
EVANSTON       CLOUDY    34   7  32 SW8       29.91F WCI  27
FORT BRIDGER   CLOUDY    38   2  22 W7        29.93F WCI  32
ROCK SPRINGS   FAIR      29   8  41 S7        29.90F WCI  22
DIXON          FAIR      19   9  64 CALM      30.00F
RAWLINS        FAIR      32  12  43 SW12G17   29.87F WCI  23
SARATOGA       FAIR      25  10  54 NE3       29.90F
LARAMIE        FAIR      32   9  38 S9        29.85S WCI  24
CHEYENNE       FAIR      45   5  19 W24       29.78F
TORRINGTON     FAIR      49   5  16 W9        29.74F
PINE BLUFFS    FAIR      41   7  24 MISG      29.77F

$$




USA.gov is the U.S. government's official web portal to all federal, state and local government web resources and services.